EDT,Max TemperatureF,Mean TemperatureF,Min TemperatureF,Max Dew PointF,MeanDew PointF,Min DewpointF,Max Humidity, Mean Humidity, Min Humidity, Max Sea Level PressureIn, Mean Sea Level PressureIn, Min Sea Level PressureIn, Max VisibilityMiles, Mean VisibilityMiles, Min VisibilityMiles, Max Wind SpeedMPH, Mean Wind SpeedMPH, Max Gust SpeedMPH,PrecipitationIn, CloudCover, Events, WindDirDegrees
2012-10-1,29,25,21,,,,,,,29.86,29.70,29.52,9,2,0,32,12,33,0.00,2,Rain-Snow,98
2012-10-2,32,28,24,,,,,,,29.63,29.28,29.11,1,0,0,43,31,45,0.00,1,Rain-Snow,174
2012-10-3,24,20,15,,,,,,,29.83,29.59,29.38,3,1,0,29,20,29,0.00,6,Snow,213
2012-10-4,19,16,12,,,,,,,29.97,29.80,29.66,9,4,0,20,12,,0.00,6,Snow,282
2012-10-5,16,12,8,,,,,,,29.99,29.83,29.77,9,6,0,16,8,,0.00,6,Snow,297
2012-10-6,21,16,10,,,,,,,30.06,29.92,29.82,9,5,0,13,7,,0.00,7,Rain-Snow,248
2012-10-7,19,16,12,,,,,,,30.04,29.87,29.75,9,3,0,15,7,,0.00,5,Rain-Snow,1
2012-10-8,18,15,12,,,,,,,29.93,29.79,29.58,9,9,9,8,5,,0.00,4,,66
2012-10-9,15,10,6,,,,,,,30.04,29.97,29.79,9,9,9,15,7,,0.00,0,Snow,347
2012-10-10,15,10,5,,,,,,,30.07,29.96,29.85,9,5,0,10,7,,0.00,4,Snow,74
2012-10-11,24,14,5,,,,,,,29.99,29.59,29.41,9,3,0,45,22,58,0.00,7,Snow,77
2012-10-12,24,24,23,,,,,,,29.59,29.41,29.35,9,3,0,44,32,52,0.00,3,Snow,78
2012-10-13,26,24,21,,,,,,,29.65,29.55,29.45,9,9,2,26,14,23,0.00,5,Snow,119
2012-10-14,24,20,15,,,,,,,29.79,29.60,29.45,9,1,0,17,10,17,0.00,2,Snow,328
2012-10-15,24,20,15,,,,,,,29.84,29.74,29.63,9,8,2,36,12,36,0.00,2,Snow,66
2012-10-16,28,26,23,,,,,,,29.89,29.70,29.58,9,7,0,39,22,45,0.00,4,Snow,81
2012-10-17,27,21,15,,,,,,,29.93,29.74,29.59,2,0,0,29,19,23,0.00,3,Rain-Snow,163
2012-10-18,24,22,21,,,,,,,29.85,29.75,29.66,0,0,0,33,24,,0.00,0,Rain-Snow,215
2012-10-19,23,16,8,,,,,,,30.09,29.85,29.65,5,1,0,21,12,18,0.00,3,Snow,269
2012-10-20,18,15,12,,,,,,,30.32,30.09,29.92,9,2,0,14,8,,0.00,8,Rain-Snow,269
2012-10-21,14,10,6,,,,,,,30.48,30.31,30.17,9,6,0,16,9,,0.00,3,Snow,44
2012-10-22,15,13,11,,,,,,,30.51,30.44,30.30,9,9,9,16,10,,0.00,1,Snow,56
2012-10-23,14,12,10,,,,,,,30.54,30.48,30.35,9,9,9,15,8,17,0.00,0,Snow,44
2012-10-24,23,16,9,,,,,,,30.52,30.25,30.03,9,6,1,34,15,39,0.00,4,Snow,60
2012-10-25,23,22,21,,,,,,,30.18,29.93,29.84,9,2,0,36,23,44,0.00,4,Snow,90
2012-10-26,23,20,17,,,,,,,30.07,29.90,29.70,9,2,0,38,16,39,0.00,4,Snow,118
2012-10-27,26,24,21,,,,,,,29.83,29.41,29.15,0,0,0,50,37,51,0.00,2,Rain-Snow,102
2012-10-28,25,21,17,,,,,,,30.12,29.82,29.32,1,0,0,45,31,46,0.00,1,Rain-Snow,213
2012-10-29,17,12,6,,,,,,,30.51,30.18,29.99,9,4,0,24,18,,0.00,5,Snow,267
2012-10-30,10,6,1,,,,,,,30.60,30.43,30.34,9,7,0,20,9,,0.00,6,Rain-Snow,316
2012-10-31,8,4,0,,,,,,,30.61,30.42,30.29,9,6,0,13,9,,0.00,7,Snow,48